Delta Virtual Airport Information Service

Memphis International Airport

ICAO: KMEM Country: United States
Latitude: 35.0424 Longitude: -89.9766
Latest Arrival : SWA3429 (C) (KMDW-KMEM) Latest Departure : FDX2 (3) (KMEM-EGSS)


WX CaptureLIVE
Data provided by noaa.gov | Fetched at 03:31:25

METAR : KMEM 030854Z 00000KT 10SM CLR 10/08 A3004 RMK AO2 SLP170 T01000078 56006 $

TAF : KMEM 030855Z 0309/0412 20005KT P6SM SCT250 FM031500 21008KT P6SM SCT250 FM040600 20004KT P6SM BKN250


Runway Data for KMEM
Data provided by openaviationdata.com

Runway ID Mag Var Hdg Length Elevation Surface ILS Freq ILS Id ILS Slope
9 0 91° 8936 ft 288 ft Asphalt 109.5 IMEM 3
18L 0 178° 9015 ft 288 ft Concrete 111.15 IEXS 3
18R 0 178° 9335 ft 288 ft Concrete 109.9 IOOI 3
18C 0 178° 11138 ft 288 ft Concrete 111.95 ISDU 3
27 0 271° 8936 ft 288 ft Asphalt 108.7 IJIM 3
36L 0 358° 9335 ft 288 ft Concrete 108.9 IOHN 3
36R 0 358° 9015 ft 288 ft Concrete 111.35 IMYO 3
36C 0 358° 11138 ft 288 ft Concrete 110.5 ITSE 3

Memphis International Airport, United States
Use only for reference purposes



Not for navigational purposes.